EN

Hourly Weather Sheffield

Today, 28 February, Sunday

Time Temperature Precipitation Wind Pressure Humidity
00:00 +4°C° 0 mm 0 mps 772 mmHg 84%
01:00 +4°C° 0 mm 0 mps 772 mmHg 85%
02:00 +4°C° 0 mm 0 mps 772 mmHg 85%
03:00 +3°C° 0 mm 0 mps 771 mmHg 86%
04:00 +3°C° 0 mm 0 mps 771 mmHg 86%
05:00 +3°C° 0 mm 0 mps 771 mmHg 86%
06:00 +3°C° 0 mm 0 mps 771 mmHg 88%
07:00 +4°C° 0 mm 0 mps 771 mmHg 85%
08:00 +5°C° 0 mm 0 mps 771 mmHg 83%
09:00 +6°C° 0 mm 0 mps 770 mmHg 80%
10:00 +7°C° 0 mm 0 mps 770 mmHg 74%
11:00 +8°C° 0 mm 0 mps 771 mmHg 68%
12:00 +11°C° 0 mm 1 mps 771 mmHg 62%
13:00 +11°C° 0 mm 1 mps 770 mmHg 61%
14:00 +11°C° 0 mm 1 mps 769 mmHg 59%
15:00 +12°C° 0 mm 1 mps 769 mmHg 58%
16:00 +10°C° 0 mm 1 mps 769 mmHg 64%
17:00 +9°C° 0 mm 1 mps 769 mmHg 71%
18:00 +8°C° 0 mm 1 mps 768 mmHg 77%
19:00 +7°C° 0 mm 1 mps 769 mmHg 80%
20:00 +7°C° 0 mm 1 mps 769 mmHg 83%
21:00 +6°C° 0 mm 1 mps 769 mmHg 87%
22:00 +6°C° 0 mm 1 mps 769 mmHg 87%
23:00 +5°C° 0 mm 1 mps 769 mmHg 88%

Tomorrow, 1 March, Monday

Time Temperature Precipitation Wind Pressure Humidity
00:00 +5°C° 0 mm 1 mps 769 mmHg 89%
01:00 +4°C° 0 mm 1 mps 768 mmHg 89%
02:00 +4°C° 0 mm 1 mps 768 mmHg 90%
03:00 +4°C° 0 mm 1 mps 767 mmHg 90%
04:00 +3°C° 0 mm 1 mps 767 mmHg 91%
05:00 +3°C° 0 mm 1 mps 767 mmHg 91%
06:00 +3°C° 0 mm 1 mps 767 mmHg 91%
07:00 +4°C° 0 mm 1 mps 767 mmHg 89%
08:00 +5°C° 0 mm 1 mps 767 mmHg 86%
09:00 +5°C° 0 mm 1 mps 767 mmHg 83%
10:00 +6°C° 0 mm 2 mps 767 mmHg 79%
11:00 +7°C° 0 mm 2 mps 767 mmHg 74%
12:00 +9°C° 0 mm 3 mps 767 mmHg 69%
13:00 +9°C° 0 mm 3 mps 766 mmHg 69%
14:00 +10°C° 0 mm 3 mps 766 mmHg 69%
15:00 +11°C° 0 mm 4 mps 765 mmHg 68%
16:00 +9°C° 0 mm 3 mps 765 mmHg 74%
17:00 +8°C° 0 mm 3 mps 765 mmHg 79%
18:00 +7°C° 0 mm 3 mps 765 mmHg 85%
19:00 +6°C° 0 mm 2 mps 765 mmHg 85%
20:00 +5°C° 0 mm 2 mps 765 mmHg 86%
21:00 +4°C° 0 mm 2 mps 765 mmHg 87%
22:00 +5°C° 0 mm 1 mps 765 mmHg 87%
23:00 +4°C° 0 mm 1 mps 765 mmHg 87%

Day after tomorrow, 2 March, Tuesday

Time Temperature Precipitation Wind Pressure Humidity
00:00 +4°C° 0 mm 1 mps 765 mmHg 88%
01:00 +3°C° 0 mm 1 mps 765 mmHg 88%
02:00 +3°C° 0 mm 1 mps 765 mmHg 88%
03:00 +3°C° 0 mm 1 mps 765 mmHg 88%
04:00 +3°C° 0 mm 1 mps 764 mmHg 88%
05:00 +3°C° 0 mm 1 mps 764 mmHg 89%
06:00 +2°C° 0 mm 1 mps 764 mmHg 89%
07:00 +2°C° 0 mm 2 mps 764 mmHg 87%
08:00 +3°C° 0 mm 2 mps 764 mmHg 84%
09:00 +4°C° 0 mm 2 mps 764 mmHg 82%
10:00 +6°C° 0 mm 2 mps 764 mmHg 77%
11:00 +7°C° 0 mm 2 mps 764 mmHg 72%
12:00 +9°C° 0 mm 2 mps 764 mmHg 68%
13:00 +10°C° 0 mm 2 mps 764 mmHg 66%
14:00 +10°C° 0 mm 2 mps 763 mmHg 65%
15:00 +12°C° 0 mm 2 mps 763 mmHg 64%
16:00 +9°C° 0 mm 2 mps 763 mmHg 71%
17:00 +8°C° 0 mm 2 mps 763 mmHg 77%
18:00 +7°C° 0 mm 2 mps 763 mmHg 83%
19:00 +7°C° 0 mm 1 mps 763 mmHg 86%
20:00 +6°C° 0 mm 1 mps 763 mmHg 89%
21:00 +6°C° 0 mm 1 mps 763 mmHg 91%
22:00 +5°C° 0 mm 1 mps 763 mmHg 92%
23:00 +5°C° 0 mm 1 mps 763 mmHg 93%

3 March, Wednesday

Time Temperature Precipitation Wind Pressure Humidity
00:00 +5°C° 0 mm 1 mps 763 mmHg 93%
01:00 +4°C° 0 mm 1 mps 763 mmHg 94%
02:00 +4°C° 0 mm 1 mps 763 mmHg 94%
03:00 +4°C° 0 mm 1 mps 763 mmHg 94%
04:00 +3°C° 0 mm 0 mps 762 mmHg 94%
05:00 +3°C° 0 mm 0 mps 762 mmHg 94%
06:00 +3°C° 0 mm 0 mps 762 mmHg 93%
07:00 +4°C° 0 mm 0 mps 762 mmHg 90%
08:00 +5°C° 0 mm 0 mps 762 mmHg 87%
09:00 +5°C° 0 mm 0 mps 762 mmHg 84%
10:00 +8°C° 0 mm 1 mps 762 mmHg 78%
11:00 +9°C° 0 mm 1 mps 762 mmHg 72%
12:00 +11°C° 0 mm 1 mps 762 mmHg 67%
13:00 +11°C° 0 mm 1 mps 761 mmHg 66%
14:00 +11°C° 0 mm 1 mps 761 mmHg 65%
15:00 +11°C° 0 mm 1 mps 761 mmHg 64%
16:00 +10°C° 0 mm 1 mps 760 mmHg 67%
17:00 +9°C° 0 mm 1 mps 760 mmHg 71%
18:00 +7°C° 0 mm 0 mps 760 mmHg 75%
19:00 +8°C° 0 mm 1 mps 760 mmHg 77%
20:00 +8°C° 0 mm 1 mps 760 mmHg 78%
21:00 +7°C° 0 mm 1 mps 760 mmHg 80%
22:00 +7°C° 0 mm 1 mps 760 mmHg 83%
23:00 +6°C° 0 mm 1 mps 760 mmHg 85%

4 March, Thursday

Time Temperature Precipitation Wind Pressure Humidity
00:00 +6°C° 0 mm 1 mps 759 mmHg 87%
01:00 +5°C° 0 mm 1 mps 759 mmHg 89%
02:00 +3°C° 0 mm 2 mps 759 mmHg 90%
03:00 +3°C° 0 mm 2 mps 759 mmHg 91%
04:00 +3°C° 0 mm 2 mps 759 mmHg 92%
05:00 +2°C° 0 mm 2 mps 759 mmHg 92%
06:00 +2°C° 0 mm 2 mps 759 mmHg 93%
07:00 +2°C° 0 mm 3 mps 759 mmHg 90%
08:00 +2°C° 0 mm 3 mps 759 mmHg 88%
09:00 +3°C° 0 mm 3 mps 759 mmHg 85%
10:00 +3°C° 0 mm 3 mps 759 mmHg 81%
11:00 +4°C° 0 mm 3 mps 759 mmHg 78%
12:00 +5°C° 0 mm 3 mps 759 mmHg 74%
13:00 +5°C° 0 mm 3 mps 759 mmHg 73%
14:00 +5°C° 0 mm 3 mps 759 mmHg 72%
15:00 +5°C° 0 mm 3 mps 759 mmHg 71%
16:00 +5°C° 0 mm 3 mps 759 mmHg 73%
17:00 +5°C° 0 mm 3 mps 759 mmHg 74%
18:00 +4°C° 0 mm 3 mps 759 mmHg 75%
19:00 +4°C° 0 mm 4 mps 760 mmHg 75%
20:00 +3°C° 0 mm 4 mps 760 mmHg 76%
21:00 +3°C° 0 mm 4 mps 760 mmHg 77%
22:00 +1°C° 0 mm 4 mps 761 mmHg 76%
23:00 +2°C° 0 mm 3 mps 761 mmHg 74%

5 March, Friday

Time Temperature Precipitation Wind Pressure Humidity
00:00 +2°C° 0 mm 3 mps 761 mmHg 73%
01:00 +2°C° 0 mm 3 mps 761 mmHg 71%
02:00 +2°C° 0 mm 3 mps 761 mmHg 70%
03:00 +3°C° 0 mm 2 mps 761 mmHg 68%
04:00 +2°C° 0 mm 2 mps 761 mmHg 69%
05:00 +2°C° 0 mm 2 mps 762 mmHg 69%
06:00 +2°C° 0 mm 2 mps 762 mmHg 70%
07:00 +1°C° 0 mm 3 mps 762 mmHg 67%
08:00 +2°C° 0 mm 3 mps 763 mmHg 65%
09:00 +3°C° 0 mm 4 mps 763 mmHg 62%
10:00 +3°C° 0 mm 4 mps 763 mmHg 60%
11:00 +4°C° 0 mm 4 mps 763 mmHg 59%
12:00 +4°C° 0 mm 4 mps 763 mmHg 57%
13:00 +4°C° 0 mm 4 mps 763 mmHg 56%
14:00 +5°C° 0 mm 4 mps 763 mmHg 55%
15:00 +5°C° 0 mm 4 mps 763 mmHg 53%
16:00 +4°C° 0 mm 4 mps 763 mmHg 58%
17:00 +2°C° 0 mm 3 mps 763 mmHg 63%
18:00 +1°C° 0 mm 3 mps 763 mmHg 69%
19:00 +1°C° 0 mm 3 mps 764 mmHg 70%
20:00 0°C° 0 mm 3 mps 764 mmHg 71%
21:00 -1°C° 0 mm 3 mps 764 mmHg 72%
22:00 -1°C° 0 mm 3 mps 764 mmHg 72%
23:00 -1°C° 0 mm 2 mps 765 mmHg 72%
Show more